Guymon, OK

7:01 AM CST on December 06, 2016 (GMT -0600)
Guymon Municipal

Weather History for KGUY - January, 2014

Change the Weather History Date:

Wednesday, January 8, 2014

  Actual Average Record
Temperature  
Mean Temperature 31 °F 35 °F  
Max Temperature 36 °F 49 °F 79 °F (2002)
Min Temperature 26 °F 21 °F -3 °F (2010)
Degree Days  
Heating Degree Days 34 30  
Month to date heating degree days 273 244  
Since 1 July heating degree days 2119 2061  
Cooling Degree Days 0 0  
Month to date cooling degree days 0 0  
Year to date cooling degree days 0 0  
Moisture  
Dew Point 22 °F    
Average Humidity 64    
Maximum Humidity 84    
Minimum Humidity 44    
Precipitation  
Precipitation 0.00 in 0.00 in 0.12 in (2016)
Month to date precipitation 0.02 0.05  
Year to date precipitation 0.02 0.05  
Snow  
Snow 0.00 in - - ()
Month to date snowfall 1.0  
Since 1 July snowfall 8.2  
Snow Depth 0.00 in    
Sea Level Pressure  
Sea Level Pressure 30.06 in    
Wind  
Wind Speed 10 mph (North)    
Max Wind Speed 23 mph    
Max Gust Speed 29 mph    
Visibility 10 miles    
Events      
T = Trace of Precipitation, MM = Missing Value Source: NWS Daily Summary

Daily Weather History Graph

Daily Weather History Graph

Search for Another Location

Airport or City:

Trip Planner

Search our weather history database for the weather conditions in past years. The results will help you decide how hot, cold, wet, or windy it might be!

Date:

Astronomy

Jan. 08, 2014 Rise Set
Actual Time 7:58 AM CST 5:47 PM CST
Civil Twilight 7:30 AM CST 6:15 PM CST
Nautical Twilight 6:58 AM CST 6:47 PM CST
Astronomical Twilight 6:26 AM CST 7:18 PM CST
Moon 12:35 PM CST (1/8) 1:11 AM CST (1/8)
Length of Visible Light 10h 45m
Length of Day
9h 48m
First Quarter, 56% of the Moon is Illuminated
Jan 8
First Quarter
Jan 15
Full
Jan 23
Last Quarter
Jan 30
New
Feb 6
First Quarter

Hourly Weather History & Observations

Time (CST) Temp. Windchill Dew Point Humidity Pressure Visibility Wind Dir Wind Speed Gust Speed Precip Events Conditions
12:53 AM 34.0 °F 31.0 °F 19.0 °F 54% 29.84 in 10.0 mi South 3.5 mph - N/A   Clear
1:53 AM 33.1 °F - 19.9 °F 59% 29.83 in 10.0 mi Calm Calm - N/A   Clear
2:53 AM 32.0 °F 28.7 °F 19.9 °F 61% 29.82 in 10.0 mi South 3.5 mph - N/A   Clear
3:53 AM 28.9 °F - 19.0 °F 67% 29.83 in 10.0 mi Calm Calm - N/A   Clear
4:53 AM 28.0 °F 17.0 °F 21.0 °F 75% 29.86 in 10.0 mi NW 13.8 mph - N/A   Clear
5:53 AM 27.0 °F 15.2 °F 21.9 °F 81% 29.91 in 10.0 mi NNW 15.0 mph - N/A   Clear
6:53 AM 26.1 °F 12.7 °F 21.9 °F 84% 29.96 in 10.0 mi NNW 18.4 mph - N/A   Clear
7:53 AM 26.1 °F 13.1 °F 21.9 °F 84% 30.00 in 10.0 mi North 17.3 mph - N/A   Clear
8:53 AM 27.0 °F 13.2 °F 23.0 °F 85% 30.06 in 10.0 mi North 20.7 mph 26.5 mph N/A   Clear
9:00 AM 27.0 °F 13.9 °F 23.0 °F 85% 30.03 in 10.0 mi North 18.4 mph - N/A   Scattered Clouds
9:45 AM 28.9 °F 16.5 °F 24.1 °F 82% 30.07 in 10.0 mi North 18.4 mph - N/A   Mostly Cloudy
9:53 AM 28.9 °F 16.1 °F 23.0 °F 78% 30.09 in 10.0 mi North 19.6 mph 24.2 mph N/A   Mostly Cloudy
10:17 AM 28.9 °F 16.5 °F 23.0 °F 78% 30.07 in 10.0 mi North 18.4 mph 25.3 mph N/A   Overcast
10:53 AM 28.9 °F 15.4 °F 23.0 °F 78% 30.12 in 10.0 mi North 21.9 mph - N/A   Overcast
11:17 AM 28.9 °F 15.8 °F 23.0 °F 78% 30.09 in 10.0 mi North 20.7 mph - N/A   Overcast
11:53 AM 28.9 °F 16.5 °F 23.0 °F 78% 30.12 in 10.0 mi North 18.4 mph - N/A   Overcast
12:53 PM 30.0 °F 17.5 °F 21.9 °F 72% 30.12 in 10.0 mi North 19.6 mph - N/A   Overcast
1:53 PM 30.9 °F 20.2 °F 21.9 °F 69% 30.11 in 10.0 mi NNE 15.0 mph - N/A   Overcast
2:38 PM 33.1 °F 23.4 °F 21.9 °F 64% 30.08 in 10.0 mi NNE 13.8 mph - N/A   Scattered Clouds
2:53 PM 35.1 °F 25.9 °F 23.0 °F 61% 30.10 in 10.0 mi NNE 13.8 mph - N/A   Clear
3:53 PM 35.1 °F 26.4 °F 23.0 °F 61% 30.10 in 10.0 mi NNE 12.7 mph - N/A   Clear
4:53 PM 35.1 °F 26.9 °F 21.9 °F 59% 30.12 in 10.0 mi NE 11.5 mph - N/A   Clear
5:53 PM 30.0 °F 25.2 °F 21.0 °F 69% 30.16 in 10.0 mi NNE 4.6 mph - N/A   Clear
6:53 PM 28.0 °F 22.8 °F 21.0 °F 75% 30.18 in 10.0 mi NNE 4.6 mph - N/A   Clear
7:18 PM 28.9 °F 22.8 °F 21.0 °F 72% 30.13 in 10.0 mi NNE 5.8 mph - N/A   Mostly Cloudy
7:53 PM 28.9 °F - 21.9 °F 75% 30.22 in 10.0 mi Calm Calm - N/A   Overcast
8:53 PM 28.0 °F - 21.9 °F 78% 30.22 in 10.0 mi Calm Calm - N/A   Overcast
9:53 PM 28.0 °F 24.2 °F 21.9 °F 78% 30.22 in 10.0 mi North 3.5 mph - N/A   Overcast
10:53 PM 28.0 °F 22.8 °F 21.9 °F 78% 30.20 in 10.0 mi NE 4.6 mph - N/A   Overcast
11:53 PM 27.0 °F - 19.9 °F 75% 30.20 in 10.0 mi Calm Calm - N/A   Clear